When you browse on this site, cookies collect data to enhance your experience and personalize the content and advertising you see.
Visit our Privacy Policy to learn more. By continuing to use the site, you agree to this use of cookies and data.
  • In Deutschland
  • Länderverzeichnis
  • Für 7 Tage
  • Wassertemperatur
  • Wetterkarte
  • Widgets
  • user-avatar
    Anmelden

    Stündliche Wetter Losie

    Heute, 27 Mai, Mittwoch

    Zeit Temperatur Niederschläge Wind Luftdruck Luftfeuchtigkeit
    00:00 +9°C° 0 mm 3 m/S 764 mmHg 92%
    01:00 +9°C° 0 mm 3 m/S 764 mmHg 94%
    02:00 +8°C° 0 mm 3 m/S 764 mmHg 93%
    03:00 +8°C° 0 mm 3 m/S 764 mmHg 93%
    04:00 +8°C° 0 mm 3 m/S 764 mmHg 92%
    05:00 +9°C° 0 mm 3 m/S 764 mmHg 86%
    06:00 +11°C° 0 mm 3 m/S 764 mmHg 81%
    07:00 +12°C° 0 mm 3 m/S 764 mmHg 75%
    08:00 +14°C° 0 mm 4 m/S 764 mmHg 69%
    09:00 +17°C° 0 mm 4 m/S 764 mmHg 63%
    10:00 +18°C° 0 mm 4 m/S 764 mmHg 57%
    11:00 +19°C° 0 mm 4 m/S 763 mmHg 55%
    12:00 +20°C° 0 mm 5 m/S 763 mmHg 53%
    13:00 +20°C° 0 mm 5 m/S 762 mmHg 51%
    14:00 +20°C° 0 mm 5 m/S 762 mmHg 52%
    15:00 +20°C° 0 mm 5 m/S 762 mmHg 54%
    16:00 +19°C° 0 mm 5 m/S 762 mmHg 56%
    17:00 +18°C° 0 mm 4 m/S 762 mmHg 61%
    18:00 +17°C° 0 mm 3 m/S 762 mmHg 66%
    19:00 +15°C° 0 mm 2 m/S 761 mmHg 72%
    20:00 +14°C° 0 mm 2 m/S 761 mmHg 76%
    21:00 +13°C° 0 mm 2 m/S 761 mmHg 81%
    22:00 +12°C° 0 mm 2 m/S 761 mmHg 86%
    23:00 +10°C° 0 mm 2 m/S 761 mmHg 87%

    Morgen, 28 Mai, Donnerstag

    Zeit Temperatur Niederschläge Wind Luftdruck Luftfeuchtigkeit
    00:00 +11°C° 0 mm 1 m/S 761 mmHg 89%
    01:00 +11°C° 0 mm 1 m/S 761 mmHg 91%
    02:00 +10°C° 0 mm 1 m/S 761 mmHg 91%
    03:00 +10°C° 0 mm 1 m/S 760 mmHg 91%
    04:00 +10°C° 0 mm 1 m/S 760 mmHg 91%
    05:00 +11°C° 0 mm 1 m/S 760 mmHg 85%
    06:00 +13°C° 0 mm 1 m/S 760 mmHg 80%
    07:00 +14°C° 0 mm 1 m/S 760 mmHg 74%
    08:00 +15°C° 0 mm 2 m/S 760 mmHg 71%
    09:00 +16°C° 0 mm 2 m/S 759 mmHg 68%
    10:00 +17°C° 0 mm 3 m/S 759 mmHg 65%
    11:00 +17°C° 0.2 mm 3 m/S 759 mmHg 65%
    12:00 +18°C° 0.2 mm 4 m/S 759 mmHg 64%
    13:00 +17°C° 0.2 mm 5 m/S 758 mmHg 64%
    14:00 +17°C° 0.2 mm 5 m/S 758 mmHg 64%
    15:00 +18°C° 0.2 mm 4 m/S 758 mmHg 64%
    16:00 +18°C° 0.2 mm 4 m/S 758 mmHg 64%
    17:00 +17°C° 0.1 mm 4 m/S 758 mmHg 69%
    18:00 +16°C° 0.1 mm 3 m/S 757 mmHg 74%
    19:00 +14°C° 0.1 mm 3 m/S 757 mmHg 79%
    20:00 +13°C° 0 mm 3 m/S 757 mmHg 83%
    21:00 +12°C° 0 mm 3 m/S 758 mmHg 87%
    22:00 +11°C° 0 mm 4 m/S 758 mmHg 91%
    23:00 +11°C° 0 mm 4 m/S 758 mmHg 92%

    übermorgen, 29 Mai, Freitag

    Zeit Temperatur Niederschläge Wind Luftdruck Luftfeuchtigkeit
    00:00 +10°C° 0 mm 4 m/S 758 mmHg 93%
    01:00 +10°C° 0 mm 4 m/S 757 mmHg 94%
    02:00 +10°C° 0 mm 4 m/S 757 mmHg 93%
    03:00 +8°C° 0 mm 5 m/S 757 mmHg 91%
    04:00 +7°C° 0 mm 5 m/S 757 mmHg 90%
    05:00 +8°C° 0 mm 5 m/S 757 mmHg 85%
    06:00 +9°C° 0 mm 5 m/S 757 mmHg 80%
    07:00 +10°C° 0 mm 6 m/S 757 mmHg 75%
    08:00 +13°C° 0 mm 6 m/S 757 mmHg 70%
    09:00 +14°C° 0 mm 7 m/S 757 mmHg 64%
    10:00 +16°C° 0 mm 7 m/S 757 mmHg 59%
    11:00 +16°C° 0 mm 7 m/S 756 mmHg 57%
    12:00 +17°C° 0 mm 8 m/S 756 mmHg 55%
    13:00 +17°C° 0 mm 8 m/S 756 mmHg 54%
    14:00 +17°C° 0 mm 8 m/S 756 mmHg 55%
    15:00 +17°C° 0 mm 7 m/S 756 mmHg 57%
    16:00 +16°C° 0 mm 7 m/S 756 mmHg 58%
    17:00 +15°C° 0 mm 6 m/S 755 mmHg 63%
    18:00 +14°C° 0 mm 6 m/S 755 mmHg 68%
    19:00 +13°C° 0 mm 5 m/S 755 mmHg 73%
    20:00 +12°C° 0 mm 5 m/S 755 mmHg 73%
    21:00 +10°C° 0 mm 5 m/S 755 mmHg 74%
    22:00 +10°C° 0 mm 6 m/S 755 mmHg 74%
    23:00 +9°C° 0.1 mm 6 m/S 755 mmHg 75%

    30 Mai, Samstag

    Zeit Temperatur Niederschläge Wind Luftdruck Luftfeuchtigkeit
    00:00 +9°C° 0.1 mm 6 m/S 755 mmHg 76%
    01:00 +8°C° 0.1 mm 6 m/S 754 mmHg 77%
    02:00 +8°C° 0.2 mm 6 m/S 754 mmHg 79%
    03:00 +8°C° 0.2 mm 6 m/S 754 mmHg 80%
    04:00 +8°C° 0.2 mm 6 m/S 754 mmHg 82%
    05:00 +8°C° 0.4 mm 6 m/S 753 mmHg 84%
    06:00 +8°C° 0.4 mm 6 m/S 753 mmHg 86%
    07:00 +8°C° 0.4 mm 6 m/S 753 mmHg 89%
    08:00 +8°C° 0.5 mm 6 m/S 753 mmHg 89%
    09:00 +8°C° 0.5 mm 6 m/S 753 mmHg 90%
    10:00 +8°C° 0.5 mm 5 m/S 753 mmHg 90%
    11:00 +8°C° 0.1 mm 5 m/S 753 mmHg 90%
    12:00 +9°C° 0.1 mm 5 m/S 753 mmHg 90%
    13:00 +9°C° 0.1 mm 5 m/S 753 mmHg 90%
    14:00 +9°C° 0 mm 5 m/S 753 mmHg 90%
    15:00 +9°C° 0 mm 5 m/S 752 mmHg 90%
    16:00 +10°C° 0 mm 4 m/S 752 mmHg 90%
    17:00 +10°C° 0 mm 4 m/S 752 mmHg 91%
    18:00 +10°C° 0 mm 4 m/S 752 mmHg 92%
    19:00 +10°C° 0 mm 4 m/S 752 mmHg 93%
    20:00 +11°C° 0.1 mm 4 m/S 752 mmHg 94%
    21:00 +11°C° 0.1 mm 4 m/S 752 mmHg 95%
    22:00 +11°C° 0.1 mm 4 m/S 751 mmHg 96%
    23:00 +11°C° 0.2 mm 4 m/S 751 mmHg 96%

    31 Mai, Sonntag

    Zeit Temperatur Niederschläge Wind Luftdruck Luftfeuchtigkeit
    00:00 +12°C° 0.2 mm 4 m/S 751 mmHg 97%
    01:00 +12°C° 0.2 mm 4 m/S 750 mmHg 97%
    02:00 +13°C° 1.2 mm 4 m/S 750 mmHg 97%
    03:00 +13°C° 1.2 mm 3 m/S 750 mmHg 98%
    04:00 +13°C° 1.2 mm 3 m/S 750 mmHg 98%
    05:00 +14°C° 0.3 mm 4 m/S 750 mmHg 97%
    06:00 +14°C° 0.3 mm 4 m/S 750 mmHg 96%
    07:00 +15°C° 0.3 mm 5 m/S 750 mmHg 95%
    08:00 +15°C° 0 mm 5 m/S 750 mmHg 92%
    09:00 +16°C° 0 mm 5 m/S 751 mmHg 89%
    10:00 +16°C° 0 mm 6 m/S 751 mmHg 86%
    11:00 +17°C° 0 mm 6 m/S 751 mmHg 83%
    12:00 +19°C° 0 mm 6 m/S 751 mmHg 79%
    13:00 +18°C° 0 mm 7 m/S 751 mmHg 75%
    14:00 +19°C° 0 mm 6 m/S 752 mmHg 77%
    15:00 +19°C° 0 mm 6 m/S 752 mmHg 79%
    16:00 +17°C° 0 mm 5 m/S 752 mmHg 81%
    17:00 +17°C° 0 mm 5 m/S 752 mmHg 81%
    18:00 +17°C° 0 mm 5 m/S 753 mmHg 81%
    19:00 +17°C° 0 mm 4 m/S 753 mmHg 81%
    20:00 +17°C° 0 mm 4 m/S 753 mmHg 83%
    21:00 +15°C° 0 mm 4 m/S 754 mmHg 85%
    22:00 +15°C° 0 mm 4 m/S 754 mmHg 87%
    23:00 +14°C° 0 mm 4 m/S 754 mmHg 88%

    1 Juni, Montag

    Zeit Temperatur Niederschläge Wind Luftdruck Luftfeuchtigkeit
    00:00 +14°C° 0 mm 4 m/S 755 mmHg 89%
    01:00 +13°C° 0 mm 4 m/S 755 mmHg 90%
    02:00 +13°C° 0 mm 4 m/S 755 mmHg 89%
    03:00 +12°C° 0 mm 4 m/S 755 mmHg 89%
    04:00 +11°C° 0 mm 4 m/S 755 mmHg 89%
    05:00 +13°C° 0 mm 4 m/S 755 mmHg 83%
    06:00 +14°C° 0 mm 4 m/S 756 mmHg 78%
    07:00 +15°C° 0 mm 4 m/S 756 mmHg 73%
    08:00 +17°C° 0 mm 5 m/S 756 mmHg 67%
    09:00 +19°C° 0 mm 5 m/S 756 mmHg 62%
    10:00 +20°C° 0 mm 6 m/S 756 mmHg 56%
    11:00 +21°C° 0 mm 6 m/S 756 mmHg 55%
    12:00 +21°C° 0 mm 6 m/S 756 mmHg 54%
    13:00 +22°C° 0 mm 6 m/S 756 mmHg 53%
    14:00 +21°C° 0 mm 6 m/S 756 mmHg 53%
    15:00 +21°C° 0 mm 5 m/S 756 mmHg 54%
    16:00 +21°C° 0 mm 5 m/S 756 mmHg 55%
    17:00 +20°C° 0 mm 5 m/S 756 mmHg 60%
    18:00 +19°C° 0 mm 4 m/S 756 mmHg 66%
    19:00 +17°C° 0 mm 3 m/S 756 mmHg 71%
    20:00 +16°C° 0 mm 3 m/S 756 mmHg 74%
    21:00 +14°C° 0 mm 3 m/S 757 mmHg 77%
    22:00 +13°C° 0 mm 3 m/S 757 mmHg 80%
    23:00 +12°C° 0 mm 3 m/S 757 mmHg 82%
    Mehr zeigen